TimePDT,TemperatureF,Dew PointF,Humidity,Sea Level PressureIn,VisibilityMPH,Wind Direction,Wind SpeedMPH,Gust SpeedMPH,PrecipitationIn,Events,Conditions,WindDirDegrees,DateUTC
12:15 AM,53.6,51.8,94,30.11,10.0,NW,5.8,-,N/A,,Overcast,320,2013-04-05 07:15:00
12:32 AM,53.6,51.8,94,30.11,10.0,NW,9.2,-,N/A,,Mostly Cloudy,310,2013-04-05 07:32:00
12:53 AM,54.0,51.1,90,30.11,10.0,NW,9.2,-,N/A,,Overcast,310,2013-04-05 07:53:00
1:53 AM,54.0,50.0,86,30.11,10.0,NW,9.2,-,N/A,,Overcast,320,2013-04-05 08:53:00
2:53 AM,54.0,50.0,86,30.11,10.0,NNW,12.7,-,N/A,,Overcast,330,2013-04-05 09:53:00
3:01 AM,53.6,50.0,88,30.12,10.0,NNW,10.4,-,N/A,,Overcast,330,2013-04-05 10:01:00
3:53 AM,55.0,50.0,83,30.10,10.0,NNW,11.5,-,N/A,,Overcast,330,2013-04-05 10:53:00
4:53 AM,54.0,50.0,86,30.10,10.0,NW,9.2,-,N/A,,Overcast,320,2013-04-05 11:53:00
5:53 AM,54.0,48.9,83,30.11,10.0,NNW,10.4,-,N/A,,Overcast,330,2013-04-05 12:53:00
6:53 AM,54.0,48.0,80,30.12,10.0,NW,8.1,-,N/A,,Overcast,320,2013-04-05 13:53:00
7:53 AM,55.0,48.0,77,30.15,10.0,NNW,12.7,-,N/A,,Overcast,330,2013-04-05 14:53:00
8:53 AM,55.9,48.0,75,30.16,10.0,North,6.9,-,N/A,,Overcast,350,2013-04-05 15:53:00
9:53 AM,57.9,48.9,72,30.16,10.0,WNW,8.1,-,N/A,,Overcast,300,2013-04-05 16:53:00
10:53 AM,61.0,48.0,62,30.16,10.0,WNW,5.8,-,N/A,,Mostly Cloudy,300,2013-04-05 17:53:00
11:01 AM,60.8,48.2,63,30.16,10.0,Variable,5.8,-,N/A,,Scattered Clouds,0,2013-04-05 18:01:00
11:53 AM,64.0,46.9,54,30.14,10.0,Variable,3.5,-,N/A,,Clear,0,2013-04-05 18:53:00
12:53 PM,66.9,45.0,45,30.12,10.0,Variable,4.6,-,N/A,,Clear,0,2013-04-05 19:53:00
1:53 PM,71.1,44.1,38,30.10,10.0,North,8.1,-,N/A,,Clear,360,2013-04-05 20:53:00
2:53 PM,71.1,41.0,34,30.08,10.0,WNW,3.5,-,N/A,,Clear,300,2013-04-05 21:53:00
3:53 PM,72.0,37.9,29,30.06,10.0,Calm,Calm,-,N/A,,Clear,0,2013-04-05 22:53:00
4:53 PM,73.9,34.0,23,30.05,10.0,WNW,6.9,16.1,N/A,,Clear,300,2013-04-05 23:53:00
5:53 PM,73.0,45.0,37,30.04,10.0,Variable,6.9,-,N/A,,Clear,0,2013-04-06 00:53:00
6:53 PM,69.1,42.1,38,30.05,10.0,NW,16.1,-,N/A,,Clear,320,2013-04-06 01:53:00
7:53 PM,63.0,43.0,48,30.07,10.0,NNW,9.2,-,N/A,,Clear,330,2013-04-06 02:53:00
8:53 PM,59.0,45.0,60,30.11,10.0,WNW,9.2,-,N/A,,Partly Cloudy,300,2013-04-06 03:53:00
9:53 PM,57.0,46.9,69,30.14,10.0,WNW,10.4,-,N/A,,Clear,300,2013-04-06 04:53:00
10:53 PM,54.0,46.0,75,30.14,10.0,NW,10.4,-,N/A,,Clear,320,2013-04-06 05:53:00
11:53 PM,53.1,46.0,77,30.15,10.0,NW,11.5,-,N/A,,Clear,320,2013-04-06 06:53:00